Year,Month,Day,Hour,Minute,Value (Times are PST for temperature in C)
2017,04,18,00,00,8.90
2017,04,18,00,01,8.90
2017,04,18,00,02,8.90
2017,04,18,00,03,8.90
2017,04,18,00,04,8.90
2017,04,18,00,05,8.80
2017,04,18,00,06,8.80
2017,04,18,00,07,8.80
2017,04,18,00,08,8.80
2017,04,18,00,09,8.80
2017,04,18,00,10,8.80
2017,04,18,00,11,8.80
2017,04,18,00,12,8.80
2017,04,18,00,13,8.80
2017,04,18,00,14,8.80
2017,04,18,00,15,8.70
2017,04,18,00,16,8.70
2017,04,18,00,17,8.70
2017,04,18,00,18,8.70
2017,04,18,00,19,8.70
2017,04,18,00,20,8.70
2017,04,18,00,21,8.70
2017,04,18,00,22,8.70
2017,04,18,00,23,8.70
2017,04,18,00,24,8.70
2017,04,18,00,25,8.70
2017,04,18,00,26,8.70
2017,04,18,00,27,8.70
2017,04,18,00,28,8.70
2017,04,18,00,29,8.70
2017,04,18,00,30,8.70
2017,04,18,00,31,8.70
2017,04,18,00,32,8.70
2017,04,18,00,33,8.70
2017,04,18,00,34,8.70
2017,04,18,00,35,8.70
2017,04,18,00,36,8.70
2017,04,18,00,37,8.70
2017,04,18,00,38,8.70
2017,04,18,00,39,8.70
2017,04,18,00,40,8.70
2017,04,18,00,41,8.70
2017,04,18,00,42,8.70
2017,04,18,00,43,8.70
2017,04,18,00,44,8.70
2017,04,18,00,45,8.70
2017,04,18,00,46,8.70
2017,04,18,00,47,8.60
2017,04,18,00,48,8.60
2017,04,18,00,49,8.60
2017,04,18,00,50,8.60
2017,04,18,00,51,8.60
2017,04,18,00,52,8.60
2017,04,18,00,53,8.60
2017,04,18,00,54,8.60
2017,04,18,00,55,8.60
2017,04,18,00,56,8.60
2017,04,18,00,57,8.60
2017,04,18,00,58,8.50
2017,04,18,00,59,8.50
2017,04,18,01,00,8.50
2017,04,18,01,01,8.50
2017,04,18,01,02,8.50
2017,04,18,01,03,8.50
2017,04,18,01,04,8.50
2017,04,18,01,05,8.50
2017,04,18,01,06,8.40
2017,04,18,01,07,8.40
2017,04,18,01,08,8.40
2017,04,18,01,09,8.40
2017,04,18,01,10,8.40
2017,04,18,01,11,8.50
2017,04,18,01,12,8.40
2017,04,18,01,13,8.50
2017,04,18,01,14,8.50
2017,04,18,01,15,8.50
2017,04,18,01,16,8.50
2017,04,18,01,17,8.50
2017,04,18,01,18,8.50
2017,04,18,01,19,8.50
2017,04,18,01,20,8.40
2017,04,18,01,21,8.40
2017,04,18,01,22,8.40
2017,04,18,01,23,8.40
2017,04,18,01,24,8.40
2017,04,18,01,25,8.30
2017,04,18,01,26,8.30
2017,04,18,01,27,8.30
2017,04,18,01,28,8.30
2017,04,18,01,29,8.30
2017,04,18,01,30,8.30
2017,04,18,01,31,8.30
2017,04,18,01,32,8.30
2017,04,18,01,33,8.30
2017,04,18,01,34,8.30
2017,04,18,01,35,8.30
2017,04,18,01,36,8.30
2017,04,18,01,37,8.30
2017,04,18,01,38,8.30
2017,04,18,01,39,8.30
2017,04,18,01,40,8.30
2017,04,18,01,41,8.40
2017,04,18,01,42,8.40
2017,04,18,01,43,8.40
2017,04,18,01,44,8.40
2017,04,18,01,45,8.40
2017,04,18,01,46,8.40
2017,04,18,01,47,8.40
2017,04,18,01,48,8.40
2017,04,18,01,49,8.40
2017,04,18,01,50,8.40
2017,04,18,01,51,8.30
2017,04,18,01,52,8.30
2017,04,18,01,53,8.30
2017,04,18,01,54,8.30
2017,04,18,01,55,8.30
2017,04,18,01,56,8.30
2017,04,18,01,57,8.30
2017,04,18,01,58,8.30
2017,04,18,01,59,8.30
2017,04,18,02,00,8.30
2017,04,18,02,01,8.30
2017,04,18,02,02,8.30
2017,04,18,02,03,8.30
2017,04,18,02,04,8.30
2017,04,18,02,05,8.30
2017,04,18,02,06,8.30
2017,04,18,02,07,8.30
2017,04,18,02,08,8.20
2017,04,18,02,09,8.20
2017,04,18,02,10,8.20
2017,04,18,02,11,8.20
2017,04,18,02,12,8.20
2017,04,18,02,13,8.20
2017,04,18,02,14,8.20
2017,04,18,02,15,8.20
2017,04,18,02,16,8.20
2017,04,18,02,17,8.20
2017,04,18,02,18,8.20
2017,04,18,02,19,8.20
2017,04,18,02,20,8.20
2017,04,18,02,21,8.20
2017,04,18,02,22,8.20
2017,04,18,02,23,8.20
2017,04,18,02,24,8.20
2017,04,18,02,25,8.20
2017,04,18,02,26,8.20
2017,04,18,02,27,8.20
2017,04,18,02,28,8.20
2017,04,18,02,29,8.20
2017,04,18,02,30,8.20
2017,04,18,02,31,8.20
2017,04,18,02,32,8.20
2017,04,18,02,33,8.20
2017,04,18,02,34,8.10
2017,04,18,02,35,8.10
2017,04,18,02,36,8.10
2017,04,18,02,37,8.10
2017,04,18,02,38,8.10
2017,04,18,02,39,8.10
2017,04,18,02,40,8.10
2017,04,18,02,41,8.10
2017,04,18,02,42,8.10
2017,04,18,02,43,8.10
2017,04,18,02,44,8.10
2017,04,18,02,45,8.00
2017,04,18,02,46,8.00
2017,04,18,02,47,8.00
2017,04,18,02,48,8.00
2017,04,18,02,49,8.00
2017,04,18,02,50,8.00
2017,04,18,02,51,8.00
2017,04,18,02,52,8.00
2017,04,18,02,53,8.00
2017,04,18,02,54,8.00
2017,04,18,02,55,8.00
2017,04,18,02,56,8.00
2017,04,18,02,57,8.00
2017,04,18,02,58,8.00
2017,04,18,02,59,8.00
2017,04,18,03,00,8.00
2017,04,18,03,01,8.00
2017,04,18,03,02,7.90
2017,04,18,03,03,7.90
2017,04,18,03,04,7.90
2017,04,18,03,05,7.90
2017,04,18,03,06,7.90
2017,04,18,03,07,7.90
2017,04,18,03,08,7.90
2017,04,18,03,09,7.90
2017,04,18,03,10,7.80
2017,04,18,03,11,7.80
2017,04,18,03,12,7.80
2017,04,18,03,13,7.80
2017,04,18,03,14,7.80
2017,04,18,03,15,7.80
2017,04,18,03,16,7.80
2017,04,18,03,17,7.80
2017,04,18,03,18,7.80
2017,04,18,03,19,7.80
2017,04,18,03,20,7.80
2017,04,18,03,21,7.80
2017,04,18,03,22,7.80
2017,04,18,03,23,7.80
2017,04,18,03,24,7.80
2017,04,18,03,25,7.80
2017,04,18,03,26,7.80
2017,04,18,03,27,7.80
2017,04,18,03,28,7.80
2017,04,18,03,29,7.80
2017,04,18,03,30,7.80
2017,04,18,03,31,7.80
2017,04,18,03,32,7.80
2017,04,18,03,33,7.80
2017,04,18,03,34,7.80
2017,04,18,03,35,7.80
2017,04,18,03,36,7.80
2017,04,18,03,37,7.80
2017,04,18,03,38,7.80
2017,04,18,03,39,7.80
2017,04,18,03,40,7.80
2017,04,18,03,41,7.70
2017,04,18,03,42,7.70
2017,04,18,03,43,7.70
2017,04,18,03,44,7.70
2017,04,18,03,45,7.70
2017,04,18,03,46,7.70
2017,04,18,03,47,7.70
2017,04,18,03,48,7.70
2017,04,18,03,49,7.80
2017,04,18,03,50,7.80
2017,04,18,03,51,7.70
2017,04,18,03,52,7.70
2017,04,18,03,53,7.70
2017,04,18,03,54,7.70
2017,04,18,03,55,7.70
2017,04,18,03,56,7.60
2017,04,18,03,57,7.60
2017,04,18,03,58,7.60
2017,04,18,03,59,7.60
2017,04,18,04,00,7.60
2017,04,18,04,01,7.50
2017,04,18,04,02,7.50
2017,04,18,04,03,7.40
2017,04,18,04,04,7.40
2017,04,18,04,05,7.40
2017,04,18,04,06,7.40
2017,04,18,04,07,7.40
2017,04,18,04,08,7.40
2017,04,18,04,09,7.30
2017,04,18,04,10,7.30
2017,04,18,04,11,7.30
2017,04,18,04,12,7.30
2017,04,18,04,13,7.30
2017,04,18,04,14,7.30
2017,04,18,04,15,7.30
2017,04,18,04,16,7.30
2017,04,18,04,17,7.20
2017,04,18,04,18,7.20
2017,04,18,04,19,7.20
2017,04,18,04,20,7.20
2017,04,18,04,21,7.20
2017,04,18,04,22,7.20
2017,04,18,04,23,7.20
2017,04,18,04,24,7.20
2017,04,18,04,25,7.20
2017,04,18,04,26,7.20
2017,04,18,04,27,7.20
2017,04,18,04,28,7.20
2017,04,18,04,29,7.20
2017,04,18,04,30,7.20
2017,04,18,04,31,7.20
2017,04,18,04,32,7.20
2017,04,18,04,33,7.20
2017,04,18,04,34,7.20
2017,04,18,04,35,7.20
2017,04,18,04,36,7.20
2017,04,18,04,37,7.20
2017,04,18,04,38,7.20
2017,04,18,04,39,7.20
2017,04,18,04,40,7.20
2017,04,18,04,41,7.20
2017,04,18,04,42,7.20
2017,04,18,04,43,7.10
2017,04,18,04,44,7.10
2017,04,18,04,45,7.20
2017,04,18,04,46,7.20
2017,04,18,04,47,7.20
2017,04,18,04,48,7.20
2017,04,18,04,49,7.20
2017,04,18,04,50,7.20
2017,04,18,04,51,7.20
2017,04,18,04,52,7.20
2017,04,18,04,53,7.20
2017,04,18,04,54,7.20
2017,04,18,04,55,7.20
2017,04,18,04,56,7.20
2017,04,18,04,57,7.10
2017,04,18,04,58,7.10
2017,04,18,04,59,7.10
2017,04,18,05,00,7.00
2017,04,18,05,01,7.00
2017,04,18,05,02,7.00
2017,04,18,05,03,7.00
2017,04,18,05,04,6.90
2017,04,18,05,05,6.90
2017,04,18,05,06,7.00
2017,04,18,05,07,6.90
2017,04,18,05,08,6.90
2017,04,18,05,09,6.90
2017,04,18,05,10,6.90
2017,04,18,05,11,6.90
2017,04,18,05,12,6.90
2017,04,18,05,13,6.90
2017,04,18,05,14,6.90
2017,04,18,05,15,6.90
2017,04,18,05,16,6.90
2017,04,18,05,17,6.90
2017,04,18,05,18,6.90
2017,04,18,05,19,6.90
2017,04,18,05,20,6.90
2017,04,18,05,21,6.90
2017,04,18,05,22,6.90
2017,04,18,05,23,6.80
2017,04,18,05,24,6.80
2017,04,18,05,25,6.80
2017,04,18,05,26,6.80
2017,04,18,05,27,6.80
2017,04,18,05,28,6.80
2017,04,18,05,29,6.80
2017,04,18,05,30,6.80
2017,04,18,05,31,6.80
2017,04,18,05,32,6.80
2017,04,18,05,33,6.80
2017,04,18,05,34,6.90
2017,04,18,05,35,6.90
2017,04,18,05,36,6.80
2017,04,18,05,37,6.80
2017,04,18,05,38,6.80
2017,04,18,05,39,6.90
2017,04,18,05,40,6.90
2017,04,18,05,41,6.90
2017,04,18,05,42,6.90
2017,04,18,05,43,6.90
2017,04,18,05,44,6.90
2017,04,18,05,45,6.90
2017,04,18,05,46,6.90
2017,04,18,05,47,7.00
2017,04,18,05,48,7.00
2017,04,18,05,49,7.00
2017,04,18,05,50,7.00
2017,04,18,05,51,7.00
2017,04,18,05,52,7.00
2017,04,18,05,53,7.00
2017,04,18,05,54,7.00
2017,04,18,05,55,7.00
2017,04,18,05,56,7.00
2017,04,18,05,57,7.00
2017,04,18,05,58,7.00
2017,04,18,05,59,7.00
2017,04,18,06,00,6.90
2017,04,18,06,01,6.90
2017,04,18,06,02,6.90
2017,04,18,06,03,6.90
2017,04,18,06,04,6.90
2017,04,18,06,05,6.90
2017,04,18,06,06,6.90
2017,04,18,06,07,6.90
2017,04,18,06,08,6.90
2017,04,18,06,09,6.90
2017,04,18,06,10,6.90
2017,04,18,06,11,6.90
2017,04,18,06,12,7.00
2017,04,18,06,13,7.00
2017,04,18,06,14,7.00
2017,04,18,06,15,7.10
2017,04,18,06,16,7.10
2017,04,18,06,17,7.10
2017,04,18,06,18,7.10
2017,04,18,06,19,7.10
2017,04,18,06,20,7.10
2017,04,18,06,21,7.10
2017,04,18,06,22,7.20
2017,04,18,06,23,7.20
2017,04,18,06,24,7.20
2017,04,18,06,25,7.20
2017,04,18,06,26,7.20
2017,04,18,06,27,7.20
2017,04,18,06,28,7.20
2017,04,18,06,29,7.20
2017,04,18,06,30,7.20
2017,04,18,06,31,7.20
2017,04,18,06,32,7.20
2017,04,18,06,33,7.20
2017,04,18,06,34,7.20
2017,04,18,06,35,7.20
2017,04,18,06,36,7.20
2017,04,18,06,37,7.20
2017,04,18,06,38,7.20
2017,04,18,06,39,7.20
2017,04,18,06,40,7.20
2017,04,18,06,41,7.20
2017,04,18,06,42,7.20
2017,04,18,06,43,7.20
2017,04,18,06,44,7.20
2017,04,18,06,45,7.20
2017,04,18,06,46,7.30
2017,04,18,06,47,7.30
2017,04,18,06,48,7.20
2017,04,18,06,49,7.20
2017,04,18,06,50,7.20
2017,04,18,06,51,7.20
2017,04,18,06,52,7.20
2017,04,18,06,53,7.20
2017,04,18,06,54,7.20
2017,04,18,06,55,7.20
2017,04,18,06,56,7.20
2017,04,18,06,57,7.20
2017,04,18,06,58,7.20
2017,04,18,06,59,7.30
2017,04,18,07,00,7.30
2017,04,18,07,01,7.30
2017,04,18,07,02,7.30
2017,04,18,07,03,7.30
2017,04,18,07,04,7.30
2017,04,18,07,05,7.30
2017,04,18,07,06,7.30
2017,04,18,07,07,7.30
2017,04,18,07,08,7.30
2017,04,18,07,09,7.40
2017,04,18,07,10,7.40
2017,04,18,07,11,7.40
2017,04,18,07,12,7.40
2017,04,18,07,13,7.50
2017,04,18,07,14,7.50
2017,04,18,07,15,7.50
2017,04,18,07,16,7.50
2017,04,18,07,17,7.40
2017,04,18,07,18,7.40
2017,04,18,07,19,7.40
2017,04,18,07,20,7.40
2017,04,18,07,21,7.40
2017,04,18,07,22,7.40
2017,04,18,07,23,7.40
2017,04,18,07,24,7.50
2017,04,18,07,25,7.50
2017,04,18,07,26,7.60
2017,04,18,07,27,7.60
2017,04,18,07,28,7.60
2017,04,18,07,29,7.60
2017,04,18,07,30,7.70
2017,04,18,07,31,7.70
2017,04,18,07,32,7.70
2017,04,18,07,33,7.70
2017,04,18,07,34,7.70
2017,04,18,07,35,7.80
2017,04,18,07,36,7.80
2017,04,18,07,37,7.80
2017,04,18,07,38,7.80
2017,04,18,07,39,7.90
2017,04,18,07,40,8.00
2017,04,18,07,41,8.10
2017,04,18,07,42,8.20
2017,04,18,07,43,8.20
2017,04,18,07,44,8.20
2017,04,18,07,45,8.30
2017,04,18,07,46,8.30
2017,04,18,07,47,8.30
2017,04,18,07,48,8.30
2017,04,18,07,49,8.30
2017,04,18,07,50,8.40
2017,04,18,07,51,8.50
2017,04,18,07,52,8.60
2017,04,18,07,53,8.80
2017,04,18,07,54,8.90
2017,04,18,07,55,8.90
2017,04,18,07,56,8.90
2017,04,18,07,57,8.90
2017,04,18,07,58,8.90
2017,04,18,07,59,8.90
2017,04,18,08,00,8.90
2017,04,18,08,01,8.90
2017,04,18,08,02,8.90
2017,04,18,08,03,8.90
2017,04,18,08,04,8.90
2017,04,18,08,05,8.90
2017,04,18,08,06,9.00
2017,04,18,08,07,9.00
2017,04,18,08,08,9.00
2017,04,18,08,09,9.10
2017,04,18,08,10,9.10
2017,04,18,08,11,9.20
2017,04,18,08,12,9.20
2017,04,18,08,13,9.30
2017,04,18,08,14,9.30
2017,04,18,08,15,9.30
2017,04,18,08,16,9.30
2017,04,18,08,17,9.30
2017,04,18,08,18,9.40
2017,04,18,08,19,9.40
2017,04,18,08,20,9.40
2017,04,18,08,21,9.40
2017,04,18,08,22,9.50
2017,04,18,08,23,9.50
2017,04,18,08,24,9.60
2017,04,18,08,25,9.60
2017,04,18,08,26,9.70
2017,04,18,08,27,9.80
2017,04,18,08,28,9.80
2017,04,18,08,29,9.90
2017,04,18,08,30,9.90
2017,04,18,08,31,9.90
2017,04,18,08,32,10.00
2017,04,18,08,33,10.10
2017,04,18,08,34,10.20
2017,04,18,08,35,10.30
2017,04,18,08,36,10.30
2017,04,18,08,37,10.40
2017,04,18,08,38,10.50
2017,04,18,08,39,10.50
2017,04,18,08,40,10.50
2017,04,18,08,41,10.50
2017,04,18,08,42,10.60
2017,04,18,08,43,10.70
2017,04,18,08,44,10.80
2017,04,18,08,45,10.90
2017,04,18,08,46,11.00
2017,04,18,08,47,11.10
2017,04,18,08,48,11.20
2017,04,18,08,49,11.30
2017,04,18,08,50,11.40
2017,04,18,08,51,11.40
2017,04,18,08,52,11.50
2017,04,18,08,53,11.60
2017,04,18,08,54,11.70
2017,04,18,08,55,11.80
2017,04,18,08,56,11.90
2017,04,18,08,57,11.90
2017,04,18,08,58,11.80
2017,04,18,08,59,11.70
2017,04,18,09,00,11.70
2017,04,18,09,01,11.70
2017,04,18,09,02,11.60
2017,04,18,09,03,11.70
2017,04,18,09,04,11.70
2017,04,18,09,05,11.60
2017,04,18,09,06,11.60
2017,04,18,09,07,11.50
2017,04,18,09,08,11.50
2017,04,18,09,09,11.40
2017,04,18,09,10,11.40
2017,04,18,09,11,11.40
2017,04,18,09,12,11.30
2017,04,18,09,13,11.40
2017,04,18,09,14,11.40
2017,04,18,09,15,11.40
2017,04,18,09,16,11.50
2017,04,18,09,17,11.50
2017,04,18,09,18,11.50
2017,04,18,09,19,11.40
2017,04,18,09,20,11.40
2017,04,18,09,21,11.30
2017,04,18,09,22,11.20
2017,04,18,09,23,11.20
2017,04,18,09,24,11.30
2017,04,18,09,25,11.40
2017,04,18,09,26,11.50
2017,04,18,09,27,11.50
2017,04,18,09,28,11.50
2017,04,18,09,29,11.60
2017,04,18,09,30,11.60
2017,04,18,09,31,11.60
2017,04,18,09,32,11.60
2017,04,18,09,33,11.60
2017,04,18,09,34,11.60
2017,04,18,09,35,11.70
2017,04,18,09,36,11.90
2017,04,18,09,37,12.00
2017,04,18,09,38,12.10
2017,04,18,09,39,12.20
2017,04,18,09,40,12.20
2017,04,18,09,41,12.30
2017,04,18,09,42,12.30
2017,04,18,09,43,12.30
2017,04,18,09,44,12.40
2017,04,18,09,45,12.40
2017,04,18,09,46,12.50
2017,04,18,09,47,12.50
2017,04,18,09,48,12.60
2017,04,18,09,49,12.60
2017,04,18,09,50,12.60
2017,04,18,09,51,12.60
2017,04,18,09,52,12.60
2017,04,18,09,53,12.70
2017,04,18,09,54,12.70
2017,04,18,09,55,12.80
2017,04,18,09,56,12.80
2017,04,18,09,57,12.80
2017,04,18,09,58,12.80
2017,04,18,09,59,12.80
2017,04,18,10,00,12.80
2017,04,18,10,01,12.80
2017,04,18,10,02,12.70
2017,04,18,10,03,12.70
2017,04,18,10,04,12.60
2017,04,18,10,05,12.60
2017,04,18,10,06,12.50
2017,04,18,10,07,12.50
2017,04,18,10,08,12.50
2017,04,18,10,09,12.50
2017,04,18,10,10,12.40
2017,04,18,10,11,12.50
2017,04,18,10,12,12.60
2017,04,18,10,13,12.60
2017,04,18,10,14,12.70
2017,04,18,10,15,12.70
2017,04,18,10,16,12.80
2017,04,18,10,17,12.80
2017,04,18,10,18,12.90
2017,04,18,10,19,12.90
2017,04,18,10,20,13.00
2017,04,18,10,21,13.10
2017,04,18,10,22,13.10
2017,04,18,10,23,13.20
2017,04,18,10,24,13.20
2017,04,18,10,25,13.20
2017,04,18,10,26,13.20
2017,04,18,10,27,13.30
2017,04,18,10,28,13.40
2017,04,18,10,29,13.40
2017,04,18,10,30,13.40
2017,04,18,10,31,13.50
2017,04,18,10,32,13.50
2017,04,18,10,33,13.60
2017,04,18,10,34,13.50
2017,04,18,10,35,13.50
2017,04,18,10,36,13.40
2017,04,18,10,37,13.40
2017,04,18,10,38,13.40
2017,04,18,10,39,13.40
2017,04,18,10,40,13.30
2017,04,18,10,41,13.30
2017,04,18,10,42,13.30
2017,04,18,10,43,13.20
2017,04,18,10,44,13.20
2017,04,18,10,45,13.30
2017,04,18,10,46,13.30
2017,04,18,10,47,13.30
2017,04,18,10,48,13.30
2017,04,18,10,49,13.30
2017,04,18,10,50,13.30
2017,04,18,10,51,13.40
2017,04,18,10,52,13.50
2017,04,18,10,53,13.60
2017,04,18,10,54,13.70
2017,04,18,10,55,13.70
2017,04,18,10,56,13.70
2017,04,18,10,57,13.80
2017,04,18,10,58,13.80
2017,04,18,10,59,13.80
2017,04,18,11,00,13.90
2017,04,18,11,01,14.00
2017,04,18,11,02,14.10
2017,04,18,11,03,14.20
2017,04,18,11,04,14.10
2017,04,18,11,05,14.00
2017,04,18,11,06,14.00
2017,04,18,11,07,13.90
2017,04,18,11,08,14.00
2017,04,18,11,09,14.00
2017,04,18,11,10,14.00
2017,04,18,11,11,13.90
2017,04,18,11,12,13.80
2017,04,18,11,13,13.80
2017,04,18,11,14,13.80
2017,04,18,11,15,13.80
2017,04,18,11,16,13.80
2017,04,18,11,17,13.80
2017,04,18,11,18,13.90
2017,04,18,11,19,13.80
2017,04,18,11,20,13.70
2017,04,18,11,21,13.70
2017,04,18,11,22,13.70
2017,04,18,11,23,13.70
2017,04,18,11,24,13.70
2017,04,18,11,25,13.80
2017,04,18,11,26,13.80
2017,04,18,11,27,13.90
2017,04,18,11,28,14.00
2017,04,18,11,29,14.10
2017,04,18,11,30,14.20
2017,04,18,11,31,14.20
2017,04,18,11,32,14.30
2017,04,18,11,33,14.30
2017,04,18,11,34,14.30
2017,04,18,11,35,14.40
2017,04,18,11,36,14.40
2017,04,18,11,37,14.40
2017,04,18,11,38,14.30
2017,04,18,11,39,14.30
2017,04,18,11,40,14.30
2017,04,18,11,41,14.30
2017,04,18,11,42,14.20
2017,04,18,11,43,14.00
2017,04,18,11,44,13.90
2017,04,18,11,45,13.80
2017,04,18,11,46,13.70
2017,04,18,11,47,13.60
2017,04,18,11,48,13.50
2017,04,18,11,49,13.40
2017,04,18,11,50,13.40
2017,04,18,11,51,13.30
2017,04,18,11,52,13.30
2017,04,18,11,53,13.20
2017,04,18,11,54,13.20
2017,04,18,11,55,13.20
2017,04,18,11,56,13.20
2017,04,18,11,57,13.20
2017,04,18,11,58,13.30
2017,04,18,11,59,13.40
2017,04,18,12,00,13.40
2017,04,18,12,01,13.50
2017,04,18,12,02,13.60
2017,04,18,12,03,13.60
2017,04,18,12,04,13.60
2017,04,18,12,05,13.60
2017,04,18,12,06,13.60
2017,04,18,12,07,13.60
2017,04,18,12,08,13.70
2017,04,18,12,09,13.80
2017,04,18,12,10,13.90
2017,04,18,12,11,13.90
2017,04,18,12,12,14.00
2017,04,18,12,13,14.10
2017,04,18,12,14,14.20
2017,04,18,12,15,14.20
2017,04,18,12,16,14.20
2017,04,18,12,17,14.20
2017,04,18,12,18,14.20
2017,04,18,12,19,14.20
2017,04,18,12,20,14.20
2017,04,18,12,21,14.30
2017,04,18,12,22,14.30
2017,04,18,12,23,14.30
2017,04,18,12,24,14.40
2017,04,18,12,25,14.40
2017,04,18,12,26,14.50
2017,04,18,12,27,14.40
2017,04,18,12,28,14.30
2017,04,18,12,29,14.30
2017,04,18,12,30,14.30
2017,04,18,12,31,14.20
2017,04,18,12,32,14.10
2017,04,18,12,33,14.00
2017,04,18,12,34,13.90
2017,04,18,12,35,13.80
2017,04,18,12,36,13.80
2017,04,18,12,37,13.80
2017,04,18,12,38,13.70
2017,04,18,12,39,13.80
2017,04,18,12,40,13.70
2017,04,18,12,41,13.60
2017,04,18,12,42,13.50
2017,04,18,12,43,13.50
2017,04,18,12,44,13.40
2017,04,18,12,45,13.40
2017,04,18,12,46,13.40
2017,04,18,12,47,13.50
2017,04,18,12,48,13.50
2017,04,18,12,49,13.50
2017,04,18,12,50,13.40
2017,04,18,12,51,13.40
2017,04,18,12,52,13.40
2017,04,18,12,53,13.40
2017,04,18,12,54,13.40
2017,04,18,12,55,13.40
2017,04,18,12,56,13.40
2017,04,18,12,57,13.40
2017,04,18,12,58,13.40
2017,04,18,12,59,13.50
2017,04,18,13,00,13.60
2017,04,18,13,01,13.70
2017,04,18,13,02,13.90
2017,04,18,13,03,14.00
2017,04,18,13,04,14.10
2017,04,18,13,05,14.20
2017,04,18,13,06,14.20
2017,04,18,13,07,14.10
2017,04,18,13,08,14.10
2017,04,18,13,09,14.00
2017,04,18,13,10,14.00
2017,04,18,13,11,14.00
2017,04,18,13,12,14.10
2017,04,18,13,13,14.20
2017,04,18,13,14,14.10
2017,04,18,13,15,14.10
2017,04,18,13,16,14.20
2017,04,18,13,17,14.10
2017,04,18,13,18,14.00
2017,04,18,13,19,13.80
2017,04,18,13,20,13.70
2017,04,18,13,21,13.70
2017,04,18,13,22,13.60
2017,04,18,13,23,13.60
2017,04,18,13,24,13.50
2017,04,18,13,25,13.60
2017,04,18,13,26,13.60
2017,04,18,13,27,13.60
2017,04,18,13,28,13.60
2017,04,18,13,29,13.60
2017,04,18,13,30,13.60
2017,04,18,13,31,13.60
2017,04,18,13,32,13.70
2017,04,18,13,33,13.70
2017,04,18,13,34,13.80
2017,04,18,13,35,13.90
2017,04,18,13,36,13.90
2017,04,18,13,37,14.00
2017,04,18,13,38,13.90
2017,04,18,13,39,13.90
2017,04,18,13,40,13.90
2017,04,18,13,41,13.90
2017,04,18,13,42,14.00
2017,04,18,13,43,14.00
2017,04,18,13,44,14.00
2017,04,18,13,45,14.10
2017,04,18,13,46,14.20
2017,04,18,13,47,14.20
2017,04,18,13,48,14.20
2017,04,18,13,49,14.20
2017,04,18,13,50,14.20
2017,04,18,13,51,14.30
2017,04,18,13,52,14.30
2017,04,18,13,53,14.30
2017,04,18,13,54,14.40
2017,04,18,13,55,14.50
2017,04,18,13,56,14.50
2017,04,18,13,57,14.50
2017,04,18,13,58,14.40
2017,04,18,13,59,14.40
2017,04,18,14,00,14.30
2017,04,18,14,01,14.40
2017,04,18,14,02,14.50
2017,04,18,14,03,14.60
2017,04,18,14,04,14.50
2017,04,18,14,05,14.40
2017,04,18,14,06,14.30
2017,04,18,14,07,14.30
2017,04,18,14,08,14.10
2017,04,18,14,09,14.10
2017,04,18,14,10,14.00
2017,04,18,14,11,14.00
2017,04,18,14,12,14.00
2017,04,18,14,13,14.10
2017,04,18,14,14,14.10
2017,04,18,14,15,14.20
2017,04,18,14,16,14.10
2017,04,18,14,17,14.10
2017,04,18,14,18,14.10
2017,04,18,14,19,14.10
2017,04,18,14,20,14.10
2017,04,18,14,21,14.10
2017,04,18,14,22,14.10
2017,04,18,14,23,14.10
2017,04,18,14,24,14.10
2017,04,18,14,25,14.10
2017,04,18,14,26,14.10
2017,04,18,14,27,14.00
2017,04,18,14,28,14.00
2017,04,18,14,29,14.00
2017,04,18,14,30,14.00
2017,04,18,14,31,14.10
2017,04,18,14,32,14.10
2017,04,18,14,33,14.10
2017,04,18,14,34,14.10
2017,04,18,14,35,14.10
2017,04,18,14,36,14.00
2017,04,18,14,37,14.00
2017,04,18,14,38,13.90
2017,04,18,14,39,14.00
2017,04,18,14,40,14.00
2017,04,18,14,41,14.10
2017,04,18,14,42,14.10
2017,04,18,14,43,14.20
2017,04,18,14,44,14.20
2017,04,18,14,45,14.30
2017,04,18,14,46,14.50
2017,04,18,14,47,14.60
2017,04,18,14,48,14.70
2017,04,18,14,49,14.70
2017,04,18,14,50,14.60
2017,04,18,14,51,14.50
2017,04,18,14,52,14.50
2017,04,18,14,53,14.40
2017,04,18,14,54,14.40
2017,04,18,14,55,14.40
2017,04,18,14,56,14.40
2017,04,18,14,57,14.30
2017,04,18,14,58,14.20
2017,04,18,14,59,14.20
2017,04,18,15,00,14.20
2017,04,18,15,01,14.20
2017,04,18,15,02,14.30
2017,04,18,15,03,14.30
2017,04,18,15,04,14.30
2017,04,18,15,05,14.40
2017,04,18,15,06,14.50
2017,04,18,15,07,14.50
2017,04,18,15,08,14.50
2017,04,18,15,09,14.50
2017,04,18,15,10,14.30
2017,04,18,15,11,14.20
2017,04,18,15,12,14.00
2017,04,18,15,13,14.00
2017,04,18,15,14,13.90
2017,04,18,15,15,13.90
2017,04,18,15,16,13.90
2017,04,18,15,17,13.90
2017,04,18,15,18,13.80
2017,04,18,15,19,13.80
2017,04,18,15,20,13.70
2017,04,18,15,21,13.60
2017,04,18,15,22,13.60
2017,04,18,15,23,13.50
2017,04,18,15,24,13.50
2017,04,18,15,25,13.40
2017,04,18,15,26,13.30
2017,04,18,15,27,13.20
2017,04,18,15,28,13.00
2017,04,18,15,29,12.90
2017,04,18,15,30,12.90
2017,04,18,15,31,12.90
2017,04,18,15,32,12.90
2017,04,18,15,33,13.00
2017,04,18,15,34,13.10
2017,04,18,15,35,13.20
2017,04,18,15,36,13.30
2017,04,18,15,37,13.40
2017,04,18,15,38,13.40
2017,04,18,15,39,13.40
2017,04,18,15,40,13.40
2017,04,18,15,41,13.50
2017,04,18,15,42,13.40
2017,04,18,15,43,13.30
2017,04,18,15,44,13.20
2017,04,18,15,45,13.10
2017,04,18,15,46,13.10
2017,04,18,15,47,13.10
2017,04,18,15,48,13.00
2017,04,18,15,49,13.00
2017,04,18,15,50,12.90
2017,04,18,15,51,12.80
2017,04,18,15,52,12.70
2017,04,18,15,53,12.70
2017,04,18,15,54,12.60
2017,04,18,15,55,12.60
2017,04,18,15,56,12.60
2017,04,18,15,57,12.60
2017,04,18,15,58,12.60
2017,04,18,15,59,12.60
2017,04,18,16,00,12.60
2017,04,18,16,01,12.50
2017,04,18,16,02,12.50
2017,04,18,16,03,12.50
2017,04,18,16,04,12.50
2017,04,18,16,05,12.50
2017,04,18,16,06,12.60
2017,04,18,16,07,12.60
2017,04,18,16,08,12.60
2017,04,18,16,09,12.60
2017,04,18,16,10,12.60
2017,04,18,16,11,12.70
2017,04,18,16,12,12.70
2017,04,18,16,13,12.70
2017,04,18,16,14,12.70
2017,04,18,16,15,12.70
2017,04,18,16,16,12.70
2017,04,18,16,17,12.70
2017,04,18,16,18,12.70
2017,04,18,16,19,12.70
2017,04,18,16,20,12.80
2017,04,18,16,21,12.80
2017,04,18,16,22,12.80
2017,04,18,16,23,12.80
2017,04,18,16,24,12.80
2017,04,18,16,25,12.80
2017,04,18,16,26,12.70
2017,04,18,16,27,12.60
2017,04,18,16,28,12.60
2017,04,18,16,29,12.60
2017,04,18,16,30,12.50
2017,04,18,16,31,12.50
2017,04,18,16,32,12.50
2017,04,18,16,33,12.60
2017,04,18,16,34,12.50
2017,04,18,16,35,12.50
2017,04,18,16,36,12.50
2017,04,18,16,37,12.40
2017,04,18,16,38,12.40
2017,04,18,16,39,12.40
2017,04,18,16,40,12.50
2017,04,18,16,41,12.50
2017,04,18,16,42,12.40
2017,04,18,16,43,12.40
2017,04,18,16,44,12.40
2017,04,18,16,45,12.40
2017,04,18,16,46,12.40
2017,04,18,16,47,12.40
2017,04,18,16,48,12.40
2017,04,18,16,49,12.40
2017,04,18,16,50,12.40
2017,04,18,16,51,12.50
2017,04,18,16,52,12.50
2017,04,18,16,53,12.50
2017,04,18,16,54,12.50
2017,04,18,16,55,12.50
2017,04,18,16,56,12.50
2017,04,18,16,57,12.50
2017,04,18,16,58,12.60
2017,04,18,16,59,12.60
2017,04,18,17,00,12.60
2017,04,18,17,01,12.70
2017,04,18,17,02,12.70
2017,04,18,17,03,12.70
2017,04,18,17,04,12.70
2017,04,18,17,05,12.70
2017,04,18,17,06,12.70
2017,04,18,17,07,12.80
2017,04,18,17,08,12.80
2017,04,18,17,09,12.90
2017,04,18,17,10,13.00
2017,04,18,17,11,13.10
2017,04,18,17,12,13.20
2017,04,18,17,13,13.30
2017,04,18,17,14,13.40
2017,04,18,17,15,13.50
2017,04,18,17,16,13.60
2017,04,18,17,17,13.80
2017,04,18,17,18,13.80
2017,04,18,17,19,13.80
2017,04,18,17,20,13.80
2017,04,18,17,21,13.80
2017,04,18,17,22,13.80
2017,04,18,17,23,13.80
2017,04,18,17,24,13.70
2017,04,18,17,25,13.60
2017,04,18,17,26,13.40
2017,04,18,17,27,13.30
2017,04,18,17,28,13.20
2017,04,18,17,29,13.20
2017,04,18,17,30,13.20
2017,04,18,17,31,13.20
2017,04,18,17,32,13.20
2017,04,18,17,33,13.20
2017,04,18,17,34,13.10
2017,04,18,17,35,13.00
2017,04,18,17,36,12.90
2017,04,18,17,37,12.90
2017,04,18,17,38,12.80
2017,04,18,17,39,12.80
2017,04,18,17,40,12.80
2017,04,18,17,41,12.80